Weather History for KOFF - January, 2014

Change the Weather History Date:

Saturday, January 25, 2014

  Actual Average Record
Temperature  
Mean Temperature 36 °F -  
Max Temperature 44 °F 31 °F 60 °F (2002)
Min Temperature 28 °F 15 °F -2 °F (1997)
Degree Days  
Heating Degree Days 29    
Moisture  
Dew Point 26 °F    
Average Humidity 71    
Maximum Humidity 100    
Minimum Humidity 35    
Precipitation  
Precipitation 0.00 in - - ()
Sea Level Pressure  
Sea Level Pressure 29.91 in    
Wind  
Wind Speed 14 mph (NW)    
Max Wind Speed 24 mph    
Max Gust Speed 33 mph    
Visibility 10 miles    
Events Rain    
Averages and records for this station are not official NWS values.
T = Trace of Precipitation, MM = Missing Value Source: NWS Daily Summary

Daily Weather History Graph

Daily Weather History Graph

Search for Another Location

Airport or City:

Trip Planner

Search our weather history database for the weather conditions in past years. The results will help you decide how hot, cold, wet, or windy it might be!

Date:

Astronomy

Jan. 25, 2014 Rise Set
Actual Time 7:40 AM CST 5:31 PM CST
Civil Twilight 7:10 AM CST 6:01 PM CST
Nautical Twilight 6:37 AM CST 6:34 PM CST
Astronomical Twilight 6:05 AM CST 7:07 PM CST
Moon 2:13 AM CST (1/25) 12:33 PM CST (1/25)
Length of Visible Light 10h 50m
Length of Day
9h 51m
Waning Crescent, 34% of the Moon is Illuminated
Jan 25
Waning Crescent
Jan 30
New
Feb 6
First Quarter
Feb 14
Full
Feb 22
Last Quarter

Hourly Weather History & Observations

Time (CST) Temp. Windchill Dew Point Humidity Pressure Visibility Wind Dir Wind Speed Gust Speed Precip Events Conditions
12:58 AM 44.4 °F 37.2 °F 33.8 °F 66% 29.81 in 10.0 mi NW 16.1 mph 26.5 mph N/A   Overcast
1:58 AM 43.7 °F 35.2 °F 33.1 °F 66% 29.83 in 10.0 mi NW 20.7 mph 27.6 mph N/A   Overcast
2:58 AM 42.1 °F 33.1 °F 31.6 °F 67% 29.85 in 10.0 mi NW 20.7 mph 28.8 mph N/A   Scattered Clouds
3:58 AM 41.5 °F 33.5 °F 30.0 °F 64% 29.86 in 10.0 mi NW 16.1 mph 21.9 mph N/A   Mostly Cloudy
4:58 AM 41.2 °F 34.1 °F 29.8 °F 64% 29.86 in 10.0 mi WNW 12.7 mph - N/A   Overcast
5:58 AM 40.6 °F 33.8 °F 31.3 °F 69% 29.88 in 10.0 mi NW 11.5 mph - N/A   Overcast
6:02 AM 41.0 °F 33.9 °F 32.0 °F 70% 29.86 in 10.0 mi NW 12.7 mph - N/A Rain Light Rain
6:07 AM 41.0 °F 33.1 °F 33.8 °F 76% 29.87 in 8.0 mi NW 15.0 mph - N/A Rain Light Rain
6:23 AM 39.2 °F 32.0 °F 37.4 °F 93% 29.87 in 10.0 mi NW 11.5 mph 21.9 mph N/A   Overcast
6:28 AM 39.2 °F 32.5 °F 37.4 °F 93% 29.87 in 10.0 mi NW 10.4 mph - N/A   Light Drizzle
6:29 AM 39.2 °F 32.0 °F 37.4 °F 93% 29.87 in 10.0 mi NW 11.5 mph - N/A   Overcast
6:44 AM 39.2 °F 32.5 °F 37.4 °F 93% 29.89 in 10.0 mi NW 10.4 mph - N/A   Overcast
6:56 AM 39.2 °F 32.5 °F 37.4 °F 93% 29.90 in 10.0 mi NNW 10.4 mph - N/A Rain Light Rain
6:58 AM 39.2 °F 32.5 °F 37.4 °F 93% 29.93 in 10.0 mi NNW 10.4 mph - 0.00 in Rain Light Rain
7:12 AM 37.4 °F 27.5 °F 37.4 °F 100% 29.92 in 10.0 mi NNW 18.4 mph 24.2 mph N/A   Overcast
7:16 AM 37.4 °F 26.1 °F 37.4 °F 100% 29.92 in 10.0 mi North 24.2 mph 27.6 mph N/A Rain Light Rain
7:21 AM 35.6 °F 25.9 °F 32.0 °F 87% 29.93 in 10.0 mi North 16.1 mph 33.4 mph N/A Rain Light Rain
7:29 AM 32.0 °F 20.8 °F 32.0 °F 100% 29.94 in 10.0 mi North 17.3 mph 26.5 mph N/A   Overcast
7:34 AM 32.0 °F 23.0 °F 30.2 °F 93% 29.95 in 10.0 mi North 11.5 mph 23.0 mph N/A   Overcast
7:39 AM 32.0 °F 23.6 °F 30.2 °F 93% 29.95 in 10.0 mi North 10.4 mph 23.0 mph N/A   Overcast
7:44 AM 32.0 °F 24.2 °F 28.4 °F 87% 29.95 in 10.0 mi North 9.2 mph 17.3 mph N/A   Overcast
7:58 AM 32.0 °F 24.2 °F 28.4 °F 87% 29.99 in 10.0 mi North 9.2 mph - 0.00 in   Overcast
8:58 AM 30.6 °F 22.4 °F 22.6 °F 72% 30.04 in 10.0 mi North 9.2 mph 25.3 mph N/A   Overcast
9:58 AM 30.2 °F 19.3 °F 20.1 °F 66% 30.06 in 10.0 mi North 15.0 mph - N/A   Partly Cloudy
10:58 AM 30.2 °F 20.8 °F 17.6 °F 60% 30.10 in 10.0 mi NNW 11.5 mph 18.4 mph N/A   Clear
11:58 AM 32.7 °F 22.1 °F 13.6 °F 45% 30.11 in 10.0 mi NNW 16.1 mph 23.0 mph N/A   Clear
12:58 PM 32.7 °F 23.9 °F 11.5 °F 41% 30.08 in 10.0 mi NNW 11.5 mph 19.6 mph N/A   Clear
1:58 PM 34.5 °F 24.8 °F 9.9 °F 36% 30.05 in 10.0 mi NW 15.0 mph 19.6 mph N/A   Clear
2:58 PM 35.2 °F 25.8 °F 10.0 °F 35% 30.03 in 10.0 mi WNW 15.0 mph - N/A   Clear
3:58 PM 35.6 °F 29.2 °F 10.6 °F 36% 30.01 in 10.0 mi WNW 8.1 mph - N/A   Clear
4:58 PM 35.1 °F 32.2 °F 13.1 °F 40% 29.95 in 10.0 mi SW 3.5 mph - N/A   Partly Cloudy
5:58 PM 33.6 °F - 13.5 °F 44% 29.93 in 10.0 mi Calm Calm - N/A   Overcast
6:58 PM 32.4 °F 26.9 °F 15.4 °F 50% 29.88 in 10.0 mi SSE 5.8 mph - N/A   Overcast
7:58 PM 32.7 °F 25.0 °F 16.9 °F 52% 29.83 in 10.0 mi SSE 9.2 mph - N/A   Overcast
8:58 PM 32.4 °F 25.3 °F 19.6 °F 59% 29.75 in 10.0 mi South 8.1 mph - N/A   Clear
9:58 PM 28.4 °F 22.2 °F 18.5 °F 66% 29.70 in 10.0 mi SSE 5.8 mph - N/A   Clear
10:58 PM 32.9 °F 25.3 °F 24.3 °F 71% 29.63 in 10.0 mi South 9.2 mph - N/A   Partly Cloudy
11:58 PM 36.5 °F 31.8 °F 27.7 °F 70% 29.59 in 10.0 mi SW 5.8 mph - N/A   Overcast